www.pogodaiklimat.ru

Погода и климат >> Архив погоды >> Россия >> Нижегородская область >> Выкса


ПОГОДА в Выксе

  • Прогноз погоды в Выксе
  • Монитор погоды в Выксе

АРХИВ ПОГОДЫ в Выксе

Время (UTC), дата Ветер
(напр.,м/с)
 
Видим.   Явления Облачность Т
(С)
Тd
(С)
f
(%)
Тe
(С)
Тes
(С)
Комфортность P
(гПа)
Po
(гПа)
Тmin
(С)
Tmax
(С)
R
(мм)
R24
(мм)
S
(см)
18 15.01 Ю 6-11
{11}
10 км {снег} 8/8 600 м
[Sc]
-1.4 -7.8 62 -8 -8 998.8 984.6
21 15.01 ЮВ 2-4
{11}
10 км 8/8 600 м
[Sc]
-4.6 -8.5 74 -9 -9 1000.4 986.1
00 16.01 ЮВ 1-3
{4}
10 км 9/9 600 м
[Sc]
-5.7 -8.3 82 -8 -8 1000.5 986.1
03 16.01 ЮВ 1-3
{4}
10 км 9/9 600 м
[Sc]
-5.7 -8.3 82 -8 -8 999.8 985.4 -5.8 0.0 34
06 16.01 ЮВ 1-2
{3}
10 км 10/0
[As op]
-5.7 -7.9 84 -8 -8 998.8 984.4
09 16.01 Ю 1-3
{4}
10 км 10/0
[As op]
-3.9 -7.6 75 -6 -6 998.1 983.9
12 16.01 ЮЗ 1-2
{5}
10 км 10/0
[As op]
-4.7 -8.3 76 -7 -7 998.0 983.7
15 16.01 З 3-4
{5}
10 км 10/0
[As op]
-5.9 -8.5 82 -11 -11 998.5 984.1 -3.9
18 16.01 ЮЗ 2-3
{6}
10 км 6/0
[Ac trans]
-8.9 -10.4 89 -13 -13 999.7 985.2
21 16.01 ЮЗ 1-2
{4}
10 км 10/0
[As op]
-10.2 -12.2 85 -12 -12 1012.3 987.6
00 17.01 ЮВ 2-3
{4}
10 км 10/0
[As op]
-12.7 -14.7 85 -17 -17 1004.2 989.4
03 17.01 Ю 2-4
{5}
10 км слаб. снег 10/0
[As op]
-9.4 -11.0 88 -14 -14 1005.7 991.0 -12.8 0.0 33
06 17.01 Ю 2 10 км 10/0
[Cs]
-7.5 -9.2 88 -12 -12 1006.5 991.8
09 17.01 Ю 2-6
{7}
10 км слаб. снег 10/0
[As op]
-5.5 -7.6 85 -10 -10 1006.5 991.9
12 17.01 Ю 4-8
{9}
10 км {снег} 10/0
[Ac As]
-3.6 -7.6 74 -10 -9 1006.2 991.7
15 17.01 Ю 4-7
{11}
10 км 9/0
[Ac As]
-4.5 -8.8 72 -11 -11 1005.2 990.8 -3.6 0.0
18 17.01 Ю 5-10
{11}
4000 м слаб. снег 9/0
[As op]
-5.0 -8.2 78 -12 -12 1003.7 989.3
21 17.01 Ю 4-10
{11}
2000 м слаб. снег 10/10 210 м
[Sc]
-5.2 -7.7 83 -12 -12 1001.4 987.1
00 18.01 Ю 5-11
{13}
10 км {снег} 10/10 450 м
[Sc]
-2.9 -6.3 77 -9 -9 1000.3 986.1
03 18.01 Ю 4-10
{11}
10 км слаб. снег 10/10 420 м
[Sc]
-2.1 -4.9 81 -8 -8 1000.3 986.1 -5.3 0.8 31
06 18.01 Ю 4-9
{10}
10 км {снег} 10/0
[Ac As]
-1.3 -4.2 81 -7 -7 1001.1 986.8
09 18.01 Ю 5-9
{9}
10 км 9/9 300 м
[Sc]
-0.2 -3.3 80 -6 -6 1002.6 988.4
12 18.01 Ю 3-6
{9}
10 км 10/0
[Ac As]
-0.1 -3.2 80 -5 -5 1004.1 989.9
15 18.01 Ю 3-6
{8}
10 км 6/0
[Ac trans]
-0.8 -3.6 81 -6 -6 1005.4 991.2 -0.1 0.0
18 18.01 ЮВ 3-7
{7}
10 км слаб. снег 10/10 400 м
[Sc]
-0.5 -2.6 86 -5 -5 1004.4 990.2
21 18.01 Ю 4-10
{10}
10 км слаб. снег 10/10 300 м
[Sc]
+0.1 -1.0 92 -5 -5 1003.0 988.8
00 19.01 Ю 4-10
{10}
10 км {снег} 10/10 330 м
[Sc]
+0.4 -0.2 96 -5 -5 1003.0 988.9
03 19.01 Ю 4-7
{10}
10 км 9/9 600 м
[Sc]
+1.2 -1.4 83 -4 -4 1002.4 988.3 -0.8 3 27
06 19.01 З 6-10
{12}
10 км {метель} 10/10 480 м
[Sc]
-3.2 -6.3 79 -10 -10 1006.8 992.5 -3.3
09 19.01 З 4-6
{10}
10 км 4/0
[Ac trans]
-4.1 -8.7 70 -10 -9 1009.4 994.9
12 19.01 Ю 2-4
{6}
10 км ясно -3.3 -9.3 63 -7 -7 1009.5 995.1
15 19.01 Ю 2-4
{4}
10 км 4/4 600 м
[Cu hum]
-6.5 -10.1 76 -11 -11 1010.5 995.9 +1.2 0.3
18 19.01 Ю 1-3
{5}
10 км 8/0
[Ac trans]
-8.2 -10.9 81 -11 -11 1011.1 996.4
21 19.01 Ю 2-3
{5}
10 км {снег} 6/6 600 м
[Sc]
-8.0 -10.2 84 -12 -12 1011.9 997.2
00 20.01 ЮЗ 2-4
{4}
10 км слаб. снег 9/9 600 м
[Sc]
-8.0 -9.4 90 -13 -13 1013.7 999.0
03 20.01 Ю 2-3
{7}
10 км {снег} ясно -11.5 -13.6 84 -16 -16 1015.6 1000.6 -11.6 0.2 28
06 20.01 ЮВ 1-3
{4}
10 км {снег} 9/0
[Ac trans]
-11.4 -12.7 90 -14 -14 1016.7 1001.7
09 20.01 Ю 2-5
{6}
10 км {снег} 8/0
[Ac trans Ci fib]
-8.1 -11.3 78 -12 -12 1016.2 1001.4
12 20.01 Ю 4-9
{10}
10 км {снег} 3/0
[Cc]
-3.8 -10.5 60 -10 -9 1012.7 998.3
15 20.01 Ю 4-8
{12}
10 км 6/0
[Cc]
-5.5 -10.1 70 -12 -12 1012.7 998.1 -3.8 0.0
18 20.01 Ю 5-8
{10}
10 км 10/0
[As op]
-5.5 -9.7 72 -13 -13 1012.5 997.9
21 20.01 Ю 4-7
{11}
10 км слаб. снег 10/0
[As op]
-6.0 -8.3 84 -13 -13 1011.7 997.1
00 21.01 Ю 3-8
{9}
10 км слаб. снег 10/0
[As op]
-6.3 -8.2 86 -12 -12 1011.3 996.7
03 21.01 Ю 3-6
{8}
10 км слаб. снег 10/10 210 м
[Sc]
-6.2 -7.7 89 -12 -12 1010.5 995.9 -6.4 2 31
06 21.01 Ю 2-6
{8}
2000 м слаб. снег 10/0 270 м
[As op]
-7.3 -9.0 88 -12 -12 1009.7 995.1 -7.4
09 21.01 Ю 3-6
{6}
10 км слаб. снег 10/0
[As op]
-7.1 -9.6 82 -13 -12 1009.2 994.6
12 21.01 Ю 2-4
{6}
10 км слаб. снег 8/0
[Ac As]
-6.2 -6.8 96 -11 -11 1008.5 993.9
15 21.01 Ю 3-4
{5}
10 км {ливн. осадки, снег} 8/0
[Ac trans]
-7.9 -9.7 87 -14 -14 1008.1 993.4 -5.5 0.6
18 21.01 СЗ 4-6
{6}
2000 м слаб. снег 10/0 300 м
[As op]
-8.0 -9.4 90 -15 -15 1008.5 993.8
21 21.01 З 3-4
{8}
10 км {снег} 8/0
[Ac As]
-11.9 -16.3 70 -18 -18 1010.2 995.3
00 22.01 ЮЗ 2-4
{4}
10 км {снег} ясно -15.4 -17.3 85 -20 -20 1011.3 996.2
03 22.01 ЮЗ 2-3
{5}
10 км 8/0
[Ci fib]
-16.8 -19.4 80 -22 -22 1012.2 997.1 -16.9 2 34
06 22.01 ЮЗ 3-4
{5}
10 км 8/0
[Cc]
-17.1 -19.7 80 -24 -24 1013.1 997.8 -17.2
09 22.01 З 2-3
{5}
10 км 6/0
[Cs]
-16.0 -19.4 75 -21 -20 1014.8 999.6
12 22.01 ЮЗ 3-5
{6}
10 км 3/0
[Cs]
-15.3 -19.5 70 -22 -22 1015.8 1000.6

 

Местоположение метеостанции Выкса (Нижегородская область, Россия): широта 55.33 долгота 42.12 высота над уровнем моря 114 м.

В архиве по умолчанию представлена погода в Выксе за последнюю неделю. Архивные данные за месяц целиком и за предыдущие месяцы, начиная с января 2011 года, Вы можете получить, выбрав интересующий диапазон дат из раскрывающегося списка и нажав кнопку "Ввод!".


*Определитесь, кто Вы:
робот инопланетянин человек

Внимание! Время в таблицах - всемирное. Для получения местного времени необходимо прибавить поправку, которая равна 3 ч.

Смотрите также архив погоды в соседних городах и на ближайших метеорологических станциях:

Погода в Муроме (Владимирская область, Россия) (31 км)
Погода в Елатьме (Рязанская область, Россия) (48 км)
Погода в Павлово (Нижегородская область, Россия) (90 км)
Погода в Вязниках (Владимирская область, Россия) (97 км)
Погода в Гусь-Хрустальный (Владимирская область, Россия) (97 км)
Погода в Туме (Рязанская область, Россия) (102 км)
Погода в Арзамасе (Нижегородская область, Россия) (105 км)
Погода в Темникове (Мордовия, Россия) (105 км)
Погода в Сасово (Рязанская область, Россия) (109 км)
Погода в Коврове (Владимирская область, Россия) (124 км)

Пояснения к столбцам:

Ветер - указаны скорость ветра в м/с - средняя за 10 мин, порывы в срок и между сроками (в фигурных скобках) и направление, откуда дует ветер: С - северный, СВ - северо-восточный, В - восточный, ЮВ - юго-восточный, Ю - южный, ЮЗ - юго-западный, З - западный, СЗ - северо-западный.
Видимость - горизонтальная дальность видимости в метрах или километрах. При видимости от 1 до 10 км при отсутствии осадков обычно наблюдается дымка, при ухудшении видимости до 1 км и менее - туман. В сухую погоду видимость может ухудшаться дымом, пылью или мглою.
Явления - указаны атмосферные явления, наблюдавшиеся в срок или в последний час перед сроком; фигурными скобками обозначены явления, наблюдавшиеся между сроками (за 1-3 часа до срока); квадратными скобками обозначены град или гололедные отложения с указанием их диаметра в мм.
Облачность - указаны через наклонную черту общая и нижняя облачность в баллах и высота нижней границы облаков в метрах; квадратными скобками обозначены формы облаков: Ci - перистые, Cs - перисто-слоистые, Cc - перисто-кучевые, Ac - высококучевые, As - высокослоистые, Sc - слоисто-кучевые, Ns - слоисто-дождевые, Cu - кучевые, Cb - кучево-дождевые. Подробнее классификацию облаков см. в Атласе облаков (PDF).
T - Температура воздуха - температура, измеренная на высоте 2 м над землей.
Td - Температура точки росы - температура, при понижении до которой содержащийся в воздухе водяной пар достигнет насыщения.
f - Относительная влажность воздуха - влажноcть воздуха, измеренная на высоте 2 м над землей.
Te - Эффективная температура - температура, которую ощущает одетый по сезону человек в тени. Характеристика душности погоды. При расчете учитывается влияние влажности воздуха и скорости ветра на теплоощущения человека.
Tes - Эффективная температура на солнце - температура, которую ощущает человек, с поправкой на солнечный нагрев. Характеристика знойности погоды. Зависит от высоты солнца над горизонтом, облачности и скорости ветра. Ночью, в пасмурную погоду, а также при ветре 12 м/с и более поправка равна нулю.
P - Атмосферное давление - приведенное к уровню моря атмосферное давление.
Po - Атмосферное давление - измеренное на уровне метеостанции атмосферное давление.
Tmin - Минимальная температура - минимум температуры воздуха на высоте 2 м над землей.
Tmax - Максимальная температура - максимум температуры воздуха на высоте 2 м над землей.
R - Количество осадков - Количество выпавших осадков за период времени, мм. При наведении курсора мыши на число - период времени, за который выпало указанное количество осадков.
R24 - Количество осадков - Количество выпавших осадков за 24 часа, мм.
S - Снежный покров - Высота снежного покрова, см. При наведении курсора мыши на число - состояние снежного покрова и степень покрытия местности в баллах.